Location: Caltech
(34.1382°N, 118.1253°W)
Time: 21:59:37
(UTC-08:00)

Iridium 14 - Visible Passes

Search period start: 27 February 2017 00:00
Search period end: 09 March 2017 00:00
Orbit: 776 x 779 km, 86.4° (Epoch: 27 February)

Date Brightness Start Highest point End Pass type
(mag) Time Alt. Az. Time Alt. Az. Time Alt. Az.
27 Feb 6.0 19:02:15 10° N 19:07:29 88° E 19:12:42 10° S visible
28 Feb 6.3 18:28:56 10° NNE 18:33:56 45° E 18:38:54 10° SSE visible
28 Feb 8.8 20:11:01 10° NW 20:14:11 16° W 20:17:21 10° WSW visible
01 Mar 7.8 19:36:22 10° NNW 19:40:56 31° W 19:45:28 10° SW visible
02 Mar 6.6 19:02:24 10° N 19:07:33 62° W 19:12:40 10° SSW visible
03 Mar 6.0 18:28:52 10° N 18:34:04 68° E 18:39:14 10° S visible
03 Mar 9.3 20:13:01 10° WNW 20:14:04 11° WNW 20:15:08 10° W visible
04 Mar 9.2 05:43:45 10° ESE 05:46:33 15° E 05:49:20 10° NE visible
04 Mar 8.6 19:37:01 10° NW 19:40:53 21° W 19:44:44 10° SW visible
05 Mar 7.4 19:02:43 10° NNW 19:07:34 41° W 19:12:26 10° SSW visible
06 Mar 6.2 18:28:56 10° N 18:34:10 81° W 18:39:22 10° S visible
07 Mar 9.0 05:42:33 10° SE 05:46:27 22° E 05:50:23 10° NNE visible
07 Mar 9.2 19:38:07 10° NW 19:40:48 14° W 19:43:29 10° WSW visible
08 Mar 9.6 05:11:56 10° E 05:13:16 11° ENE 05:14:37 10° ENE visible
08 Mar 8.3 19:03:13 10° NNW 19:07:34 27° W 19:11:55 10° SW visible
